BRO-22

导读

BRO-22(NORAD 69504)是法国私营企业Unseenlabs研发的海上监视卫星,2026年6月10日搭载日本JAXA的H3-30型火箭于种子岛航天中心发射,属其第一代BRO射频探测星座成员。 该卫星基于单星独立运行技术设计,可捕获船舶射频信号,定位识别未开启AIS应答器的船只,用于监测非法捕捞、海上非法排油、敏感海域异常活动等,服务各国海事管理、防务部门及相关商业机构。此次发射也是H3火箭无助推器构型的首次商业载荷验证任务。

Basic Information
目录编号:
69504
目录名称:
BRO-22
国际标识:
2026-132C
轨道中心:
EARTH
卫星名称:
BRO-22
卫星全名:
BRO-22
卫星状态:
在轨 (已飞行92 天)
发射日期:
2026-06-12 UTC
国别 :
法国 (FR)
星等 :
--
This satellite is enrolled in the Space Conjunction Data Service (SCDS) and the current flight risk assessment level is: No High Risk
Orbit Information
数据来源 国际轨道数据
星历时间: 2026-09-12T11:34:14+0800
13小时前
查看轨道信息
半长轴: 6945.21km
偏心率: 0.0017489
轨道倾角: 97.681°
近地点辐角 341.145°
升交点赤经 317.715°
平近点角 18.912°
近地点: 554.926km
远地点: 579.22km
周期: 96.004分钟
每日圈数: 14.999429
Detailed Information
使用方式:
暂无
2D Orbit Map
3D Orbit Map
Orbit Altitude Analysis Chart
Orbit Inclination Analysis Chart
Orbit Comprehensive Analysis Chart
View Comprehensive Chart
Conjunction Data List
Event ID Objects TCA Miss Dist (km) Collision Risk Probability Collision Risk Index (CRI) Action
CDM_260914-030505-592006-950422
BRO-22 (69504)
2026-09-14T
03:05:09+0000
2.548 km
极远距离
1.681531E-6 低风险 0.4
CDM_260914-235905-457606-950421
BRO-22 (69504)
2026-09-14T
23:59:50+0000
2.772 km
极远距离
5.595389E-7 极低风险 0.3
CDM_260914-120006-053706-950421
BRO-22 (69504)
2026-09-14T
12:00:14+0000
2.716 km
极远距离
4.412501E-7 极低风险 0.28
Miss Distance Evolution Trend with All Objects
Collision Probability Evolution Trend with All Objects